Weather History for Peru, IL

Change the Weather History Date:

Friday, September 28, 2012

  Actual Average Record
Temperature  
Mean Temperature 56 °F -  
Max Temperature 71 °F 73 °F 88 °F (1990)
Min Temperature 43 °F 47 °F 31 °F (1984)
Degree Days  
Heating Degree Days 8    
Growing Degree Days 6 (Base 50)    
Moisture  
Dew Point 43 °F    
Average Humidity 64    
Maximum Humidity 87    
Minimum Humidity 38    
Precipitation  
Precipitation 0.00 in - - ()
Sea Level Pressure  
Sea Level Pressure 30.16 in    
Wind  
Wind Speed 7 mph (NNE)    
Max Wind Speed 16 mph    
Max Gust Speed 20 mph    
Visibility 10 miles    
Events      
Averages and records for this station are not official NWS values.
T = Trace of Precipitation, MM = Missing Value Source: NWS Daily Summary

Daily Weather History Graph

Daily Weather History Graph

Search for Another Location

Airport:

Trip Planner

Search our weather history database for the weather conditions in past years. The results will help you decide how hot, cold, wet, or windy it might be!

Date:

Astronomy

Sep. 28, 2012 Rise Set
Actual Time 6:50 AM CDT 6:42 PM CDT
Civil Twilight 6:23 AM CDT 7:10 PM CDT
Nautical Twilight 5:51 AM CDT 7:42 PM CDT
Astronomical Twilight 5:18 AM CDT 8:14 PM CDT
Moon 5:44 PM CDT (9/28) 5:20 AM CDT (9/28)
Length of Visible Light 12h 46m
Length of Day
11h 51m
Waxing Gibbous, 98% of the Moon is Illuminated
Sep 28
Waxing Gibbous
Sep 29
Full
Oct 8
Last Quarter
Oct 15
New
Oct 21
First Quarter

Hourly Weather History & Observations

Time (CDT) Temp. Windchill Dew Point Humidity Pressure Visibility Wind Dir Wind Speed Gust Speed Precip Events Conditions
12:15 AM 49.1 °F - 44.1 °F 83% 30.18 in 10.0 mi NNE 6.9 mph - N/A   Clear
12:35 AM 49.8 °F - 44.1 °F 81% 30.18 in 10.0 mi NE 4.6 mph - N/A   Clear
12:55 AM 49.3 °F - 43.7 °F 81% 30.18 in 10.0 mi North 4.6 mph - N/A   Clear
1:15 AM 48.2 °F - 43.0 °F 82% 30.18 in 10.0 mi North 4.6 mph - N/A   Clear
1:35 AM 48.2 °F - 43.0 °F 82% 30.18 in 10.0 mi North 4.6 mph - N/A   Clear
1:55 AM 47.3 °F - 42.4 °F 83% 30.18 in 10.0 mi North 5.8 mph - N/A   Clear
2:15 AM 47.1 °F - 42.6 °F 84% 30.17 in 10.0 mi North 6.9 mph - N/A   Clear
2:35 AM 46.8 °F - 42.1 °F 84% 30.17 in 10.0 mi North 5.8 mph - N/A   Clear
2:55 AM 46.8 °F - 41.4 °F 81% 30.17 in 10.0 mi North 4.6 mph - N/A   Clear
3:15 AM 46.4 °F 43.5 °F 41.5 °F 83% 30.16 in 10.0 mi North 5.8 mph - N/A   Clear
3:35 AM 45.1 °F 41.4 °F 40.5 °F 84% 30.16 in 10.0 mi North 6.9 mph - N/A   Clear
3:55 AM 45.9 °F 42.9 °F 41.0 °F 83% 30.16 in 10.0 mi North 5.8 mph - N/A   Clear
4:15 AM 45.3 °F 42.3 °F 40.5 °F 83% 30.16 in 10.0 mi North 5.8 mph - N/A   Clear
4:35 AM 44.2 °F 40.3 °F 39.4 °F 83% 30.17 in 10.0 mi North 6.9 mph - N/A   Clear
4:55 AM 43.3 °F 39.9 °F 39.0 °F 85% 30.17 in 10.0 mi NNW 5.8 mph - N/A   Clear
5:15 AM 43.0 °F 38.8 °F 39.2 °F 86% 30.17 in 10.0 mi NNW 6.9 mph - N/A   Clear
5:35 AM 43.2 °F 39.0 °F 39.6 °F 87% 30.18 in 10.0 mi NNW 6.9 mph - N/A   Clear
5:55 AM 44.6 °F 40.2 °F 40.3 °F 85% 30.18 in 10.0 mi North 8.1 mph - N/A   Clear
6:15 AM 44.6 °F 40.2 °F 40.1 °F 84% 30.17 in 10.0 mi North 8.1 mph - N/A   Clear
6:35 AM 43.9 °F 39.3 °F 39.7 °F 85% 30.18 in 10.0 mi North 8.1 mph - N/A   Clear
6:55 AM 44.2 °F 39.7 °F 40.3 °F 86% 30.18 in 10.0 mi NNW 8.1 mph - N/A   Clear
7:15 AM 44.6 °F 40.2 °F 40.5 °F 85% 30.19 in 10.0 mi NNW 8.1 mph - N/A   Clear
7:35 AM 45.9 °F 41.7 °F 41.0 °F 83% 30.19 in 10.0 mi North 8.1 mph - N/A   Clear
7:55 AM 47.3 °F - 41.9 °F 82% 30.18 in 10.0 mi North 8.1 mph - N/A   Clear
8:15 AM 49.1 °F - 43.2 °F 80% 30.19 in 10.0 mi NNW 6.9 mph - N/A   Clear
8:35 AM 52.0 °F - 44.1 °F 74% 30.19 in 10.0 mi North 9.2 mph - N/A   Clear
8:55 AM 54.7 °F - 45.0 °F 70% 30.20 in 10.0 mi North 9.2 mph - N/A   Clear
9:15 AM 56.5 °F - 44.2 °F 64% 30.20 in 10.0 mi North 15.0 mph 19.6 mph N/A   Clear
9:35 AM 57.9 °F - 43.5 °F 59% 30.21 in 10.0 mi North 12.7 mph 19.6 mph N/A   Clear
9:55 AM 59.5 °F - 43.7 °F 56% 30.21 in 10.0 mi North 16.1 mph 19.6 mph N/A   Clear
10:15 AM 59.9 °F - 42.6 °F 53% 30.21 in 10.0 mi North 11.5 mph - N/A   Clear
10:35 AM 61.5 °F - 42.6 °F 50% 30.20 in 10.0 mi North 16.1 mph 19.6 mph N/A   Clear
10:55 AM 62.6 °F - 43.0 °F 49% 30.21 in 10.0 mi North 15.0 mph 19.6 mph N/A   Clear
11:15 AM 63.0 °F - 42.8 °F 48% 30.20 in 10.0 mi North 15.0 mph 19.6 mph N/A   Clear
11:35 AM 64.4 °F - 43.7 °F 47% 30.20 in 10.0 mi North 13.8 mph - N/A   Clear
11:55 AM 65.3 °F - 43.5 °F 45% 30.19 in 10.0 mi North 12.7 mph 19.6 mph N/A   Clear
12:15 PM 66.0 °F - 43.7 °F 44% 30.19 in 10.0 mi NNE 12.7 mph - N/A   Clear
12:35 PM 67.5 °F - 44.6 °F 44% 30.18 in 10.0 mi NNE 15.0 mph - N/A   Clear
12:55 PM 67.1 °F - 44.2 °F 44% 30.17 in 10.0 mi NE 12.7 mph 18.4 mph N/A   Clear
1:15 PM 68.4 °F - 44.6 °F 42% 30.16 in 10.0 mi ENE 15.0 mph 19.6 mph N/A   Clear
1:35 PM 68.5 °F - 44.2 °F 42% 30.15 in 10.0 mi North 8.1 mph - N/A   Clear
1:55 PM 69.1 °F - 44.4 °F 41% 30.14 in 10.0 mi NE 11.5 mph - N/A   Clear
2:15 PM 70.0 °F - 45.1 °F 41% 30.14 in 10.0 mi NE 10.4 mph 16.1 mph N/A   Clear
2:35 PM 69.8 °F - 44.4 °F 40% 30.13 in 10.0 mi North 6.9 mph - N/A   Clear
2:55 PM 70.7 °F - 44.4 °F 39% 30.12 in 10.0 mi ENE 10.4 mph - N/A   Clear
3:15 PM 70.5 °F - 44.4 °F 39% 30.11 in 10.0 mi NE 9.2 mph - N/A   Clear
3:35 PM 70.7 °F - 44.1 °F 38% 30.11 in 10.0 mi North 4.6 mph - N/A   Clear
3:55 PM 70.7 °F - 44.6 °F 39% 30.11 in 10.0 mi NNE 6.9 mph - N/A   Clear
4:15 PM 70.9 °F - 44.1 °F 38% 30.11 in 10.0 mi NNE 10.4 mph - N/A   Clear
4:35 PM 70.7 °F - 44.4 °F 39% 30.11 in 10.0 mi NNE 9.2 mph - N/A   Clear
4:55 PM 70.3 °F - 45.1 °F 40% 30.10 in 10.0 mi NE 6.9 mph - N/A   Clear
5:15 PM 70.0 °F - 45.0 °F 41% 30.11 in 10.0 mi NNE 8.1 mph - N/A   Clear
5:35 PM 69.4 °F - 44.2 °F 40% 30.11 in 10.0 mi NNW 4.6 mph - N/A   Clear
5:55 PM 68.7 °F - 45.1 °F 43% 30.11 in 10.0 mi NNE 4.6 mph - N/A   Clear
6:15 PM 67.3 °F - 44.2 °F 43% 30.11 in 10.0 mi NNW 5.8 mph - N/A   Clear
6:35 PM 66.6 °F - 43.2 °F 43% 30.12 in 10.0 mi North 5.8 mph - N/A   Clear
6:55 PM 63.1 °F - 43.3 °F 48% 30.11 in 10.0 mi North 4.6 mph - N/A   Clear
7:15 PM 61.3 °F - 43.2 °F 51% 30.11 in 10.0 mi North 6.9 mph - N/A   Clear
7:35 PM 58.5 °F - 43.2 °F 57% 30.11 in 10.0 mi NE 9.2 mph - N/A   Clear
7:55 PM 59.9 °F - 43.2 °F 54% 30.12 in 10.0 mi NE 6.9 mph - N/A   Clear
8:15 PM 59.7 °F - 44.8 °F 58% 30.12 in 10.0 mi NNE 4.6 mph - N/A   Clear
8:35 PM 57.7 °F - 44.8 °F 62% 30.13 in 10.0 mi ENE 5.8 mph - N/A   Clear
8:55 PM 57.2 °F - 45.5 °F 65% 30.13 in 10.0 mi ENE 4.6 mph - N/A   Clear
9:15 PM 55.0 °F - 45.7 °F 71% 30.13 in 10.0 mi ENE 4.6 mph - N/A   Clear
9:35 PM 56.5 °F - 46.8 °F 70% 30.13 in 10.0 mi ENE 4.6 mph - N/A   Clear
9:55 PM 54.7 °F - 45.9 °F 72% 30.14 in 10.0 mi ENE 3.5 mph - N/A   Clear
10:15 PM 54.7 °F - 46.4 °F 74% 30.14 in 10.0 mi Calm Calm - N/A   Clear
10:35 PM 54.7 °F - 46.9 °F 75% 30.14 in 10.0 mi ENE 4.6 mph - N/A   Clear
10:55 PM 51.8 °F - 45.5 °F 79% 30.14 in 10.0 mi ENE 3.5 mph - N/A   Clear
11:15 PM 52.2 °F - 46.4 °F 81% 30.14 in 10.0 mi East 3.5 mph - N/A   Clear
11:35 PM 53.2 °F - 46.0 °F 77% 30.14 in 10.0 mi Calm Calm - N/A   Clear
11:55 PM 50.4 °F - 45.1 °F 82% 30.13 in 10.0 mi Calm Calm - N/A   Clear